,

(GMT )
Al Udeid

Weather History for KQIR - September, 2012

Change the Weather History Date:

Saturday, September 15, 2012

  Actual Average Record
Temperature  
Mean Temperature 90 °F -  
Max Temperature 101 °F - - ()
Min Temperature 78 °F - - ()
Cooling Degree Days 24    
Growing Degree Days 40 (Base 50)    
Moisture  
Dew Point 69 °F    
Average Humidity 51    
Maximum Humidity 76    
Minimum Humidity 31    
Precipitation  
Precipitation 0.00 in - - ()
Sea Level Pressure  
Sea Level Pressure 29.54 in    
Wind  
Wind Speed 11 mph ()    
Max Wind Speed 26 mph    
Max Gust Speed 32 mph    
Visibility 4.9 miles    
Events      
Averages and records for this station are not official NWS values.
T = Trace of Precipitation, MM = Missing Value Source: Averaged Metar Reports

Daily Weather History Graph

Daily Weather History Graph

Search for Another Location

Airport or City:

Trip Planner

Search our weather history database for the weather conditions in past years. The results will help you decide how hot, cold, wet, or windy it might be!

Date:

Astronomy

Sep. 15, 2012 Rise Set
Actual Time 5:20 AM +03 5:38 PM +03
Civil Twilight 4:57 AM +03 6:01 PM +03
Nautical Twilight 4:31 AM +03 6:28 PM +03
Astronomical Twilight 4:04 AM +03 6:55 PM +03
Moon 4:25 AM +03 (9/15) 4:58 PM +03 (9/15)
Length of Visible Light 13h 03m
Length of Day
12h 17m
Waning Crescent, 1% of the Moon is Illuminated
Sep 15
Waning Crescent
Sep 16
New
Sep 22
First Quarter
Sep 30
Full
Oct 8
Last Quarter

Hourly Weather History & Observations

Time (+03) Temp. Heat Index Dew Point Humidity Pressure Visibility Wind Dir Wind Speed Gust Speed Precip Events Conditions
12:55 AM 80.6 °F 80.9 °F 57.9 °F 46% 29.55 in 6.2 mi WSW 9.2 mph - N/A   Clear
1:55 AM 80.4 °F 82.3 °F 65.3 °F 60% 29.54 in 6.2 mi WSW 9.2 mph - N/A   Clear
2:55 AM 79.2 °F - 66.7 °F 66% 29.53 in 6.2 mi WSW 10.4 mph - N/A   Clear
3:55 AM 79.5 °F - 68.4 °F 69% 29.53 in 6.2 mi WSW 8.1 mph - N/A   Clear
4:55 AM 78.8 °F - 63.5 °F 59% 29.54 in 6.2 mi WSW 9.2 mph - N/A   Clear
5:55 AM 79.7 °F - 60.4 °F 52% 29.55 in 6.2 mi West 6.9 mph - N/A   Clear
6:55 AM 86.2 °F 91.8 °F 71.4 °F 61% 29.57 in 5.0 mi WNW 10.4 mph - N/A   Haze
7:55 AM 91.8 °F 100.9 °F 73.4 °F 55% 29.58 in 3.7 mi NW 13.8 mph - N/A   Clear
8:55 AM 96.6 °F 104.0 °F 70.9 °F 43% 29.57 in 3.1 mi NNW 23.0 mph 28.8 mph N/A   Widespread Dust
9:55 AM 99.3 °F 105.6 °F 68.9 °F 37% 29.57 in 3.7 mi NNW 20.7 mph - N/A   Widespread Dust
10:55 AM 100.8 °F 107.0 °F 68.9 °F 35% 29.55 in 3.7 mi NNW 19.6 mph 26.5 mph N/A   Widespread Dust
11:55 AM 101.1 °F 107.8 °F 68.5 °F 35% 29.52 in 3.7 mi NW 19.6 mph - N/A   Widespread Dust
11:58 AM 100.4 °F 106.3 °F 68.0 °F 35% 29.52 in 3.7 mi NW 19.6 mph 28.8 mph N/A   Widespread Dust
12:55 PM 101.5 °F 108.5 °F 69.3 °F 35% 29.50 in 3.7 mi NW 26.5 mph 32.2 mph N/A   Widespread Dust
1:55 PM 101.7 °F 106.6 °F 66.7 °F 32% 29.49 in 3.7 mi NNW 23.0 mph - N/A   Widespread Dust
2:55 PM 101.7 °F 105.9 °F 65.7 °F 31% 29.49 in 3.7 mi NNW 19.6 mph 26.5 mph N/A   Widespread Dust
3:55 PM 98.8 °F 108.9 °F 72.7 °F 43% 29.49 in 5.0 mi North 13.8 mph 23.0 mph N/A   Partly Cloudy
4:55 PM 97.9 °F 100.9 °F 65.1 °F 34% 29.49 in 3.7 mi North 18.4 mph - N/A   Partly Cloudy
5:55 PM 93.4 °F 106.9 °F 76.8 °F 58% 29.50 in 3.7 mi NE 11.5 mph - N/A   Clear
6:55 PM 92.3 °F 102.2 °F 73.8 °F 55% 29.52 in 5.0 mi NNE 9.2 mph - N/A   Clear
7:55 PM 90.9 °F 100.6 °F 74.5 °F 58% 29.55 in 6.2 mi North 9.2 mph - N/A   Clear
8:55 PM 89.2 °F 99.0 °F 74.8 °F 62% 29.56 in 6.2 mi North 8.1 mph - N/A   Clear
9:55 PM 86.7 °F 95.9 °F 75.2 °F 68% 29.56 in 6.2 mi NW 5.8 mph - N/A   Clear
10:55 PM 84.7 °F 92.1 °F 74.1 °F 70% 29.56 in 6.2 mi NW 5.8 mph - N/A   Clear
11:55 PM 83.8 °F 92.1 °F 75.6 °F 76% 29.55 in 6.2 mi NW 6.9 mph - N/A   Clear